Location: Unspecified
(43.4680°N, 87.1740°E)
Time: 06:47:13
(UTC+00:00)

Cosmos 1356 Rocket - Visible Passes

Search period start: 29 July 2021 00:00
Search period end: 08 August 2021 00:00
Orbit: 541 x 599 km, 81.2° (Epoch: 28 July)

Date Brightness Start Highest point End Pass type
(mag) Time Alt. Az. Time Alt. Az. Time Alt. Az.
29 Jul 3.6 20:06:44 58° ESE 20:06:54 59° E 20:10:50 10° NNE visible
29 Jul 5.6 21:42:55 10° W 21:44:18 11° WNW 21:45:41 10° NW visible
30 Jul 3.3 20:08:55 79° E 20:08:55 79° E 20:12:51 10° NNE visible
31 Jul 3.3 20:11:04 73° NW 20:11:04 73° NW 20:14:49 10° N visible
01 Aug 6.1 18:37:04 10° ENE 18:37:04 10° ENE 18:37:10 10° ENE visible
01 Aug 3.7 20:13:12 54° NW 20:13:12 54° NW 20:16:45 10° N visible
02 Aug 6.0 18:39:11 13° ENE 18:39:11 13° ENE 18:40:18 10° NE visible
02 Aug 4.1 20:15:20 41° NW 20:15:20 41° NW 20:18:37 10° N visible
03 Aug 5.8 18:41:17 16° ENE 18:41:17 16° ENE 18:42:48 10° NE visible
03 Aug 4.5 20:17:26 31° NW 20:17:26 31° NW 20:20:27 10° N visible
04 Aug 5.6 18:43:23 19° ENE 18:43:23 19° ENE 18:45:08 10° NE visible
04 Aug 4.9 20:19:31 24° NW 20:19:31 24° NW 20:22:13 10° NNW visible
05 Aug 5.4 18:45:28 22° NE 18:45:28 22° NE 18:47:21 10° NNE visible
05 Aug 5.2 20:21:36 19° NW 20:21:36 19° NW 20:23:53 10° NNW visible
06 Aug 5.3 18:47:31 25° NE 18:47:31 25° NE 18:49:30 10° NNE visible
06 Aug 5.5 20:23:40 15° NW 20:23:40 15° NW 20:25:27 10° NNW visible
07 Aug 5.3 18:49:34 27° NNE 18:49:34 27° NNE 18:51:34 10° NNE visible
07 Aug 5.8 20:25:43 12° NW 20:25:43 12° NW 20:26:46 10° NW visible
